Home > Weather > Klagenfurt > Past weeks

Flag for Austria Past Weather in Klagenfurt, Carinthia, Austria — Yesterday and Last 2 Weeks

Now
64 °F

Partly cloudy.


Feels Like: 64 °F
Forecast: 63 / 81 °F
Wind: 2 mph from North

Location: Klagenfurt-Flughafen

Current Time: Jul 26, 2016 at 6:38:43 AM

Latest Report: Jul 26, 2016 at 5:50 AM


Visibility: N/A

Pressure: 30.09 "Hg

Humidity: 94%

Dew Point: 63 °F

Location of KlagenfurtLocation

Past Weather in Klagenfurt — Graph

°F

Klagenfurt Temperature Yesterday

Maximum temperature yesterday: 82 °F (at 4:20 PM)
Minimum temperature yesterday: 63 °F (at 5:50 AM)
Average temperature yesterday: 70 °F

High & Low Weather Summary for the Past Weeks

 TemperatureHumidityPressure
High91 °F (Jul 11, 3:50 PM)100% (Jul 25, 6:20 AM)30.21 "Hg (Jul 25, 6:20 AM)
Low48 °F (Jul 15, 4:50 AM)31% (Jul 14, 4:50 PM)29.80 "Hg (Jul 13, 1:50 PM)
Average69 °F68%30.05 "Hg
* Reported Jul 11 5:20 AM — Jul 26 5:20 AM, Klagenfurt, Weather by CustomWeather, © 2016

Note: Actual official high and low records may vary slightly from our data, if they occured in-between our weather recording intervals... More about our weather records

Advertising

Klagenfurt Weather History for the Previous 24 Hours

Scroll right to see more
 ConditionsComfort  
Time TempWeatherWind HumidityBarometerVisibility
5:20 AM
Tue, Jul 26
64 °FPassing clouds.1 mph94%30.09 "HgN/A
4:50 AM64 °FPassing clouds.1 mph94%30.09 "HgN/A
4:20 AM64 °FPassing clouds.No wind94%30.09 "HgN/A
3:50 AM64 °FPartly cloudy.1 mph94%30.09 "HgN/A
3:20 AM64 °FPassing clouds.3 mph94%30.09 "HgN/A
2:50 AM64 °FPartly cloudy.2 mph94%30.09 "HgN/A
2:20 AM64 °FPartly cloudy.3 mph94%30.09 "HgN/A
1:50 AM64 °FPassing clouds.2 mph94%30.09 "HgN/A
1:20 AM64 °FPassing clouds.3 mph94%30.09 "HgN/A
12:50 AM64 °FPassing clouds.3 mph94%30.12 "HgN/A
12:20 AM64 °FPassing clouds.5 mph94%30.12 "HgN/A
11:50 PM
Mon, Jul 25
64 °FLow clouds.3 mph94%30.12 "HgN/A
11:20 PM64 °FPassing clouds.3 mph94%30.12 "HgN/A
10:50 PM64 °FPassing clouds.2 mph94%30.12 "HgN/A
10:20 PM64 °FSprinkles. Partly cloudy.2 mph94%30.12 "HgN/A
9:50 PM64 °FSprinkles. Partly cloudy.6 mph94%30.12 "HgN/A
9:20 PM66 °FPartly sunny.5 mph94%30.12 "HgN/A
8:50 PM66 °FBroken clouds.2 mph94%30.09 "HgN/A
8:20 PM66 °FBroken clouds.3 mph88%30.09 "HgN/A
7:50 PM66 °FSprinkles. Broken clouds.5 mph94%30.09 "HgN/A
7:20 PM66 °FSprinkles. Broken clouds.7 mph88%30.09 "HgN/A
6:50 PM66 °FRain showers. Broken clouds.3 mph88%30.09 "HgN/A
6:20 PM66 °FThundershowers. Broken clouds.3 mph83%30.09 "HgN/A
5:50 PM66 °FThunderstorms. Broken clouds.14 mph88%30.07 "HgN/A
5:20 PM66 °FThunderstorms. Broken clouds.23 mph83%30.07 "HgN/A
4:50 PM79 °FThunderstorms. Partly sunny.8 mph61%30.04 "HgN/A
4:20 PM82 °FThundershowers. Partly sunny.3 mph55%30.04 "HgN/A
3:50 PM81 °FPartly sunny.5 mph54%30.04 "HgN/A
3:20 PM81 °FPartly sunny.5 mph54%30.04 "HgN/A
2:50 PM81 °FPartly sunny.6 mph51%30.04 "HgN/A
2:20 PM81 °FPartly sunny.3 mph58%30.04 "HgN/A
1:50 PM79 °FPartly sunny.3 mph58%30.07 "HgN/A
1:20 PM77 °FScattered clouds.3 mph57%30.07 "HgN/A
12:50 PM77 °FScattered clouds.2 mph54%30.07 "HgN/A
12:20 PM75 °FScattered clouds.3 mph61%30.09 "HgN/A
11:50 AM75 °FScattered clouds.5 mph61%30.09 "HgN/A
11:20 AM73 °FScattered clouds.3 mph69%30.09 "HgN/A
10:50 AM72 °FScattered clouds.5 mph73%30.09 "HgN/A
10:20 AM72 °FPassing clouds.6 mph73%30.09 "HgN/A
9:50 AM70 °FPassing clouds.7 mph78%30.09 "HgN/A
9:20 AM68 °FPassing clouds.8 mph83%30.09 "HgN/A
8:50 AM68 °FPassing clouds.5 mph78%30.09 "HgN/A
8:20 AM66 °FScattered clouds.3 mph88%30.09 "HgN/A
7:50 AM64 °FBroken clouds.3 mph88%30.12 "HgN/A
7:20 AM64 °FLight rain. Broken clouds.2 mph94%30.12 "HgN/A
6:50 AM64 °FSprinkles. Partly sunny.5 mph88%30.12 "HgN/A
6:20 AM63 °FRain showers. Passing clouds.5 mph100%30.15 "HgN/A
Weather by CustomWeather, © 2016

See weather overviewHow to use our weather pages